• In Austria
  • List of Countries
  • For 7 days
  • Water Temperature
  • Satellite Maps
  • Weather Map
  • News
  • Weather Widgets
  • user-avatar
    Login

    Hourly Weather Kaprun

    Today, 13 December, Wednesday

    Time Temperature Precipitation Wind Pressure Humidity
    00:00 -10°C° 0.5 mm 2 mps 591 mmHg 96%
    01:00 -10°C° 0.5 mm 2 mps 591 mmHg 95%
    02:00 -12°C° 0.2 mm 2 mps 591 mmHg 94%
    03:00 -13°C° 0.2 mm 2 mps 591 mmHg 93%
    04:00 -13°C° 0.2 mm 2 mps 591 mmHg 92%
    05:00 -12°C° 0.1 mm 1 mps 591 mmHg 92%
    06:00 -12°C° 0.1 mm 1 mps 591 mmHg 92%
    07:00 -13°C° 0.1 mm 1 mps 591 mmHg 92%
    08:00 -12°C° 0.1 mm 1 mps 591 mmHg 90%
    09:00 -11°C° 0.1 mm 1 mps 592 mmHg 89%
    10:00 -9°C° 0.1 mm 1 mps 592 mmHg 87%
    11:00 -8°C° 0 mm 1 mps 592 mmHg 86%
    12:00 -7°C° 0 mm 1 mps 592 mmHg 84%
    13:00 -6°C° 0 mm 1 mps 592 mmHg 83%
    14:00 -7°C° 0 mm 2 mps 592 mmHg 85%
    15:00 -8°C° 0 mm 2 mps 591 mmHg 87%
    16:00 -9°C° 0 mm 2 mps 590 mmHg 90%
    17:00 -9°C° 0 mm 2 mps 590 mmHg 89%
    18:00 -10°C° 0 mm 2 mps 589 mmHg 89%
    19:00 -10°C° 0 mm 2 mps 589 mmHg 88%
    20:00 -10°C° 0 mm 2 mps 589 mmHg 88%
    21:00 -12°C° 0 mm 3 mps 588 mmHg 87%
    22:00 -12°C° 0 mm 3 mps 588 mmHg 86%
    23:00 -12°C° 0 mm 3 mps 587 mmHg 84%

    Tomorrow, 14 December, Thursday

    Time Temperature Precipitation Wind Pressure Humidity
    00:00 -12°C° 0 mm 3 mps 587 mmHg 83%
    01:00 -12°C° 0 mm 3 mps 586 mmHg 82%
    02:00 -10°C° 0.1 mm 3 mps 586 mmHg 81%
    03:00 -10°C° 0.1 mm 3 mps 586 mmHg 81%
    04:00 -10°C° 0.1 mm 3 mps 586 mmHg 81%
    05:00 -10°C° 0 mm 3 mps 586 mmHg 81%
    06:00 -10°C° 0 mm 3 mps 586 mmHg 80%
    07:00 -9°C° 0 mm 2 mps 586 mmHg 80%
    08:00 -8°C° 0 mm 2 mps 586 mmHg 82%
    09:00 -7°C° 0 mm 2 mps 587 mmHg 84%
    10:00 -6°C° 0 mm 1 mps 587 mmHg 85%
    11:00 -4°C° 0.1 mm 1 mps 588 mmHg 87%
    12:00 -3°C° 0.1 mm 1 mps 588 mmHg 89%
    13:00 -3°C° 0.1 mm 1 mps 588 mmHg 90%
    14:00 -3°C° 0.1 mm 1 mps 587 mmHg 91%
    15:00 -4°C° 0.1 mm 1 mps 587 mmHg 92%
    16:00 -6°C° 0.1 mm 1 mps 586 mmHg 94%
    17:00 -7°C° 0 mm 1 mps 585 mmHg 92%
    18:00 -9°C° 0 mm 2 mps 585 mmHg 90%
    19:00 -10°C° 0 mm 2 mps 584 mmHg 88%
    20:00 -10°C° 0 mm 2 mps 584 mmHg 88%
    21:00 -12°C° 0 mm 3 mps 583 mmHg 88%
    22:00 -10°C° 0 mm 3 mps 583 mmHg 87%
    23:00 -10°C° 0 mm 3 mps 583 mmHg 87%

    Day after tomorrow, 15 December, Friday

    Time Temperature Precipitation Wind Pressure Humidity
    00:00 -10°C° 0 mm 3 mps 582 mmHg 86%
    01:00 -10°C° 0 mm 3 mps 582 mmHg 85%
    02:00 -10°C° 0 mm 3 mps 581 mmHg 86%
    03:00 -9°C° 0 mm 3 mps 581 mmHg 86%
    04:00 -9°C° 0 mm 3 mps 581 mmHg 87%
    05:00 -9°C° 1 mm 3 mps 581 mmHg 90%
    06:00 -8°C° 1 mm 2 mps 582 mmHg 93%
    07:00 -8°C° 1 mm 2 mps 582 mmHg 97%
    08:00 -8°C° 1 mm 2 mps 582 mmHg 95%
    09:00 -8°C° 1 mm 2 mps 583 mmHg 94%
    10:00 -9°C° 1 mm 2 mps 583 mmHg 93%
    11:00 -9°C° 0.4 mm 2 mps 583 mmHg 92%
    12:00 -8°C° 0.4 mm 2 mps 583 mmHg 90%
    13:00 -8°C° 0.4 mm 2 mps 583 mmHg 89%
    14:00 -8°C° 0.2 mm 1 mps 583 mmHg 89%
    15:00 -8°C° 0.2 mm 1 mps 583 mmHg 90%
    16:00 -9°C° 0.2 mm 1 mps 583 mmHg 91%
    17:00 -9°C° 0.1 mm 1 mps 583 mmHg 90%
    18:00 -10°C° 0.1 mm 1 mps 583 mmHg 89%
    19:00 -11°C° 0.1 mm 1 mps 583 mmHg 88%
    20:00 -11°C° 0.1 mm 1 mps 583 mmHg 86%
    21:00 -12°C° 0.1 mm 1 mps 583 mmHg 85%
    22:00 -12°C° 0.1 mm 1 mps 583 mmHg 84%
    23:00 -12°C° 0 mm 1 mps 583 mmHg 82%

    16 December, Saturday

    Time Temperature Precipitation Wind Pressure Humidity
    00:00 -13°C° 0 mm 1 mps 583 mmHg 80%
    01:00 -13°C° 0 mm 1 mps 583 mmHg 79%
    02:00 -13°C° 0 mm 1 mps 583 mmHg 78%
    03:00 -13°C° 0 mm 1 mps 583 mmHg 77%
    04:00 -14°C° 0 mm 1 mps 583 mmHg 77%
    05:00 -13°C° 0 mm 1 mps 584 mmHg 77%
    06:00 -12°C° 0 mm 1 mps 584 mmHg 78%
    07:00 -12°C° 0 mm 1 mps 585 mmHg 79%
    08:00 -13°C° 0.1 mm 2 mps 586 mmHg 81%
    09:00 -12°C° 0.1 mm 2 mps 587 mmHg 84%
    10:00 -10°C° 0.1 mm 2 mps 588 mmHg 87%
    11:00 -10°C° 0.1 mm 2 mps 588 mmHg 86%
    12:00 -9°C° 0.1 mm 2 mps 588 mmHg 85%
    13:00 -8°C° 0.1 mm 2 mps 589 mmHg 84%
    14:00 -9°C° 0.1 mm 2 mps 588 mmHg 87%
    15:00 -10°C° 0.1 mm 2 mps 588 mmHg 89%
    16:00 -12°C° 0.1 mm 2 mps 588 mmHg 92%
    17:00 -13°C° 0.2 mm 2 mps 588 mmHg 92%
    18:00 -13°C° 0.2 mm 2 mps 589 mmHg 92%
    19:00 -14°C° 0.2 mm 2 mps 589 mmHg 93%
    20:00 -14°C° 0.4 mm 2 mps 589 mmHg 93%
    21:00 -14°C° 0.4 mm 2 mps 590 mmHg 94%
    22:00 -13°C° 0.4 mm 2 mps 590 mmHg 94%
    23:00 -13°C° 0.2 mm 2 mps 591 mmHg 94%

    17 December, Sunday

    Time Temperature Precipitation Wind Pressure Humidity
    00:00 -13°C° 0.2 mm 2 mps 591 mmHg 95%
    01:00 -13°C° 0.2 mm 2 mps 591 mmHg 95%
    02:00 -13°C° 0.2 mm 2 mps 591 mmHg 95%
    03:00 -14°C° 0.2 mm 2 mps 591 mmHg 95%
    04:00 -14°C° 0.2 mm 2 mps 591 mmHg 95%
    05:00 -14°C° 0.2 mm 2 mps 591 mmHg 95%
    06:00 -15°C° 0.2 mm 2 mps 592 mmHg 94%
    07:00 -15°C° 0.2 mm 2 mps 592 mmHg 94%
    08:00 -14°C° 0.3 mm 2 mps 592 mmHg 93%
    09:00 -14°C° 0.3 mm 2 mps 593 mmHg 93%
    10:00 -13°C° 0.3 mm 2 mps 594 mmHg 92%
    11:00 -13°C° 0.3 mm 2 mps 594 mmHg 91%
    12:00 -13°C° 0.3 mm 2 mps 594 mmHg 90%
    13:00 -12°C° 0.3 mm 2 mps 594 mmHg 89%
    14:00 -12°C° 0.3 mm 2 mps 594 mmHg 90%
    15:00 -13°C° 0.3 mm 2 mps 595 mmHg 92%
    16:00 -13°C° 0.3 mm 2 mps 595 mmHg 93%
    17:00 -14°C° 0.2 mm 2 mps 595 mmHg 94%
    18:00 -14°C° 0.2 mm 2 mps 595 mmHg 94%
    19:00 -14°C° 0.2 mm 2 mps 596 mmHg 94%
    20:00 -15°C° 0.2 mm 2 mps 596 mmHg 94%
    21:00 -15°C° 0.2 mm 2 mps 596 mmHg 94%
    22:00 -15°C° 0.2 mm 2 mps 597 mmHg 94%
    23:00 -16°C° 0.1 mm 2 mps 597 mmHg 94%

    18 December, Monday

    Time Temperature Precipitation Wind Pressure Humidity
    00:00 -16°C° 0.1 mm 2 mps 596 mmHg 94%
    01:00 -17°C° 0.1 mm 2 mps 596 mmHg 94%
    02:00 -17°C° 0.1 mm 2 mps 596 mmHg 93%
    03:00 -18°C° 0.1 mm 2 mps 596 mmHg 93%
    04:00 -18°C° 0.1 mm 2 mps 596 mmHg 92%
    05:00 -19°C° 0 mm 2 mps 596 mmHg 91%
    06:00 -19°C° 0 mm 2 mps 596 mmHg 91%
    07:00 -19°C° 0 mm 2 mps 596 mmHg 90%
    08:00 -18°C° 0 mm 2 mps 597 mmHg 89%
    09:00 -17°C° 0 mm 2 mps 597 mmHg 87%
    10:00 -16°C° 0 mm 2 mps 598 mmHg 85%
    11:00 -14°C° 0 mm 2 mps 598 mmHg 83%
    12:00 -13°C° 0 mm 2 mps 598 mmHg 80%
    13:00 -12°C° 0 mm 2 mps 598 mmHg 77%
    14:00 -13°C° 0 mm 2 mps 597 mmHg 81%
    15:00 -12°C° 0 mm 1 mps 597 mmHg 84%
    16:00 -13°C° 0 mm 1 mps 596 mmHg 88%
    17:00 -13°C° 0 mm 1 mps 596 mmHg 88%
    18:00 -15°C° 0 mm 2 mps 596 mmHg 87%
    19:00 -15°C° 0 mm 2 mps 596 mmHg 87%
    20:00 -15°C° 0.1 mm 2 mps 596 mmHg 88%
    21:00 -15°C° 0.1 mm 2 mps 596 mmHg 89%
    22:00 -13°C° 0.1 mm 1 mps 597 mmHg 89%
    23:00 -13°C° 0.1 mm 1 mps 597 mmHg 90%
    Show more